Weather History for EGLL - November, 2012

Change the Weather History Date:

Sunday, November 25, 2012

  Actual Average Record
Temperature  
Mean Temperature 48 °F -  
Max Temperature 52 °F 46 °F 59 °F (2006)
Min Temperature 44 °F 36 °F 30 °F (2005)
Degree Days  
Heating Degree Days 17    
Moisture  
Dew Point 44 °F    
Average Humidity 79    
Maximum Humidity 100    
Minimum Humidity 59    
Precipitation  
Precipitation 0.02 in - - ()
Sea Level Pressure  
Sea Level Pressure 29.59 in    
Wind  
Wind Speed 18 mph ()    
Max Wind Speed 34 mph    
Max Gust Speed 47 mph    
Visibility 7.1 miles    
Events Rain    
Averages and records for this station are not official NWS values.
T = Trace of Precipitation, MM = Missing Value Source: Averaged Metar Reports

Daily Weather History Graph

Daily Weather History Graph

Search for Another Location

Airport or City:

Trip Planner

Search our weather history database for the weather conditions in past years. The results will help you decide how hot, cold, wet, or windy it might be!

Date:

Astronomy

Nov. 25, 2012 Rise Set
Actual Time 7:36 AM GMT 4:00 PM GMT
Civil Twilight 6:58 AM GMT 4:39 PM GMT
Nautical Twilight 6:16 AM GMT 5:20 PM GMT
Astronomical Twilight 5:36 AM GMT 6:00 PM GMT
Moon 2:22 PM GMT (11/25) 4:21 AM GMT (11/25)
Length of Visible Light 9h 40m
Length of Day
8h 24m
Waxing Gibbous, 91% of the Moon is Illuminated
Nov 25
Waxing Gibbous
Nov 28
Full
Dec 6
Last Quarter
Dec 13
New
Dec 20
First Quarter

Hourly Weather History & Observations

Time (GMT) Temp. Windchill Dew Point Humidity Pressure Visibility Wind Dir Wind Speed Gust Speed Precip Events Conditions
12:20 AM 51.8 °F - 51.8 °F 100% 29.27 in 2.5 mi SE 10.4 mph - N/A Rain Light Rain
12:50 AM 53.6 °F - 51.8 °F 94% 29.24 in 3.1 mi South 12.7 mph - N/A Rain Light Rain
1:20 AM 55.4 °F - 51.8 °F 88% 29.21 in 6.2 mi South 17.3 mph - N/A   Overcast
1:50 AM 53.6 °F - 51.8 °F 94% 29.21 in 6.2 mi SSW 20.7 mph 39.1 mph N/A Rain Light Rain
2:20 AM 53.6 °F - 48.2 °F 82% 29.24 in 6.2 mi WSW 25.3 mph 38.0 mph N/A   Drizzle
2:50 AM 51 °F - 48 °F 85% 29.31 in 19 mi WSW 29.9 mph - - Rain Light Rain Showers
2:50 AM 51.8 °F - 48.2 °F 88% 29.30 in 6.2 mi West 31.1 mph 42.6 mph N/A Rain Light Rain
3:20 AM 50.0 °F - 46.4 °F 87% 29.36 in 6.2 mi West 28.8 mph - N/A   Partly Cloudy
3:50 AM 50.0 °F - 46.4 °F 87% 29.39 in 6.2 mi West 27.6 mph - N/A Rain Light Rain
4:20 AM 48.2 °F - 44.6 °F 87% 29.42 in 6.2 mi West 31.1 mph 43.7 mph N/A   Scattered Clouds
4:50 AM 48.2 °F - 42.8 °F 82% 29.44 in 6.2 mi West 27.6 mph - N/A   Mostly Cloudy
5:20 AM 48.2 °F - 41.0 °F 76% 29.47 in 6.2 mi West 28.8 mph 41.4 mph N/A   Mostly Cloudy
5:50 AM 46 °F - 40 °F 71% 29.53 in 22 mi WSW 31.1 mph - -  
5:50 AM 46.4 °F 36.5 °F 39.2 °F 76% 29.50 in 6.2 mi West 34.5 mph 47.2 mph N/A   Scattered Clouds
6:20 AM 46.4 °F 37.0 °F 39.2 °F 76% 29.53 in 6.2 mi West 31.1 mph 42.6 mph N/A   Scattered Clouds
6:50 AM 46.4 °F 37.4 °F 37.4 °F 71% 29.56 in 6.2 mi West 28.8 mph 43.7 mph N/A   Scattered Clouds
7:20 AM 46.4 °F 37.5 °F 35.6 °F 66% 29.62 in 6.2 mi West 27.6 mph - N/A   Partly Cloudy
7:50 AM 44.6 °F 35.5 °F 35.6 °F 71% 29.62 in 6.2 mi West 25.3 mph 36.8 mph N/A   Partly Cloudy
8:20 AM 44.6 °F 35.7 °F 37.4 °F 76% 29.65 in 6.2 mi West 24.2 mph - N/A   Partly Cloudy
8:50 AM 46 °F - 38 °F 67% 29.68 in 19 mi WSW 20.7 mph - -   Partly Cloudy
8:50 AM 46.4 °F 38.7 °F 37.4 °F 71% 29.68 in 6.2 mi WSW 20.7 mph - N/A   Partly Cloudy
9:20 AM 46.4 °F 39.2 °F 37.4 °F 71% 29.68 in 6.2 mi WSW 18.4 mph - N/A   Partly Cloudy
9:50 AM 48.2 °F - 37.4 °F 66% 29.71 in - WSW 21.9 mph - N/A   Clear
10:20 AM 48.2 °F - 39.2 °F 71% 29.71 in - WSW 19.6 mph - N/A   Clear
10:50 AM 50.0 °F - 41.0 °F 71% 29.74 in 6.2 mi WSW 19.6 mph - N/A   Partly Cloudy
11:20 AM 50.0 °F - 41.0 °F 71% 29.71 in 6.2 mi WSW 17.3 mph - N/A   Partly Cloudy
11:50 AM 51 °F - 41 °F 59% 29.73 in 22 mi WSW 19.6 mph - -   Scattered Clouds
11:50 AM 51.8 °F - 41.0 °F 67% 29.71 in 6.2 mi WSW 17.3 mph - N/A   Partly Cloudy
12:20 PM 51.8 °F - 41.0 °F 67% 29.71 in 6.2 mi WSW 18.4 mph - N/A   Partly Cloudy
12:50 PM 51.8 °F - 41.0 °F 67% 29.71 in 6.2 mi WSW 15.0 mph - N/A   Partly Cloudy
1:20 PM 51.8 °F - 42.8 °F 71% 29.71 in 6.2 mi WSW 13.8 mph - N/A   Partly Cloudy
1:50 PM 51.8 °F - 44.6 °F 76% 29.71 in 6.2 mi SW 15.0 mph - N/A   Scattered Clouds
2:20 PM 51.8 °F - 46.4 °F 82% 29.71 in 6.2 mi SW 13.8 mph - N/A   Scattered Clouds
2:50 PM 52 °F - 45 °F 70% 29.71 in 19 mi SW 15.0 mph - - Rain Rain
2:50 PM 51.8 °F - 44.6 °F 76% 29.71 in 6.2 mi SW 16.1 mph - N/A   Scattered Clouds
3:20 PM 51.8 °F - 44.6 °F 76% 29.71 in 6.2 mi SW 10.4 mph - N/A   Scattered Clouds
3:50 PM 51.8 °F - 44.6 °F 76% 29.71 in 6.2 mi SW 11.5 mph - N/A   Scattered Clouds
4:20 PM 51.8 °F - 46.4 °F 82% 29.71 in 6.2 mi SW 11.5 mph - N/A   Scattered Clouds
4:50 PM 50.0 °F - 46.4 °F 87% 29.71 in 6.2 mi SSW 10.4 mph 21.9 mph N/A   Scattered Clouds
5:20 PM 50.0 °F - 48.2 °F 94% 29.68 in 6.2 mi South 10.4 mph - N/A Rain Light Rain Showers
5:50 PM 50 °F - 49 °F 93% 29.70 in 2 mi South 8.1 mph - - Rain Rain Showers
5:50 PM 50.0 °F - 48.2 °F 94% 29.68 in 5.0 mi South 9.2 mph - N/A Rain Rain Showers
6:20 PM 50.0 °F - 48.2 °F 94% 29.68 in 6.2 mi SSW 9.2 mph - N/A   Scattered Clouds
6:50 PM 50.0 °F - 48.2 °F 94% 29.68 in 6.2 mi South 9.2 mph - N/A   Scattered Clouds
7:20 PM 50.0 °F - 48.2 °F 94% 29.68 in 6.2 mi SSW 9.2 mph - N/A Rain Light Rain Showers
7:50 PM 50.0 °F - 46.4 °F 87% 29.65 in 6.2 mi SSW 11.5 mph - N/A   Partly Cloudy
8:20 PM 50.0 °F - 46.4 °F 87% 29.65 in 6.2 mi South 13.8 mph - N/A   Partly Cloudy
8:50 PM 51 °F - 45 °F 73% 29.65 in 16 mi South 12.7 mph - -   Scattered Clouds
8:50 PM 50.0 °F - 44.6 °F 82% 29.65 in 6.2 mi South 13.8 mph - N/A   Partly Cloudy
9:20 PM 50.0 °F - 44.6 °F 82% 29.65 in 6.2 mi South 15.0 mph - N/A   Partly Cloudy
9:50 PM 51.8 °F - 44.6 °F 76% 29.62 in 6.2 mi South 15.0 mph - N/A   Scattered Clouds
10:20 PM 51.8 °F - 44.6 °F 76% 29.62 in 6.2 mi South 16.1 mph - N/A   Mostly Cloudy
10:50 PM 51.8 °F - 44.6 °F 76% 29.62 in 6.2 mi South 12.7 mph - N/A   Scattered Clouds
11:20 PM 50.0 °F - 44.6 °F 82% 29.59 in 6.2 mi South 13.8 mph - N/A   Scattered Clouds
11:50 PM 51 °F - 44 °F 70% 29.58 in 16 mi South 15.0 mph - - Rain Light Rain Showers
11:50 PM 51.8 °F - 44.6 °F 76% 29.56 in 6.2 mi South 13.8 mph - N/A   Scattered Clouds